Year,Month,Day,Hour,Minute,Value (Times are PST for temperature in C)
2014,06,13,00,00,15.80
2014,06,13,00,01,15.80
2014,06,13,00,02,15.70
2014,06,13,00,03,15.70
2014,06,13,00,04,15.70
2014,06,13,00,05,15.70
2014,06,13,00,06,15.70
2014,06,13,00,07,15.60
2014,06,13,00,08,15.60
2014,06,13,00,09,15.60
2014,06,13,00,10,15.60
2014,06,13,00,11,15.60
2014,06,13,00,12,15.60
2014,06,13,00,13,15.50
2014,06,13,00,14,15.50
2014,06,13,00,15,15.50
2014,06,13,00,16,15.50
2014,06,13,00,17,15.50
2014,06,13,00,18,15.40
2014,06,13,00,19,15.40
2014,06,13,00,20,15.40
2014,06,13,00,21,15.40
2014,06,13,00,22,15.40
2014,06,13,00,23,15.30
2014,06,13,00,24,15.30
2014,06,13,00,25,15.30
2014,06,13,00,26,15.30
2014,06,13,00,27,15.30
2014,06,13,00,28,15.30
2014,06,13,00,29,15.30
2014,06,13,00,30,15.30
2014,06,13,00,31,15.30
2014,06,13,00,32,15.30
2014,06,13,00,33,15.30
2014,06,13,00,34,15.30
2014,06,13,00,35,15.20
2014,06,13,00,36,15.20
2014,06,13,00,37,15.20
2014,06,13,00,38,15.20
2014,06,13,00,39,15.20
2014,06,13,00,40,15.10
2014,06,13,00,41,15.10
2014,06,13,00,42,15.10
2014,06,13,00,43,15.10
2014,06,13,00,44,15.10
2014,06,13,00,45,15.10
2014,06,13,00,46,15.10
2014,06,13,00,47,15.10
2014,06,13,00,48,15.10
2014,06,13,00,49,15.10
2014,06,13,00,50,15.10
2014,06,13,00,51,15.00
2014,06,13,00,52,15.00
2014,06,13,00,53,15.00
2014,06,13,00,54,14.90
2014,06,13,00,55,14.90
2014,06,13,00,56,14.90
2014,06,13,00,57,14.90
2014,06,13,00,58,14.90
2014,06,13,00,59,14.90
2014,06,13,01,00,14.90
2014,06,13,01,01,14.90
2014,06,13,01,02,14.90
2014,06,13,01,03,14.80
2014,06,13,01,04,14.80
2014,06,13,01,05,14.80
2014,06,13,01,06,14.80
2014,06,13,01,07,14.80
2014,06,13,01,08,14.80
2014,06,13,01,09,14.80
2014,06,13,01,10,14.80
2014,06,13,01,11,14.80
2014,06,13,01,12,14.80
2014,06,13,01,13,14.80
2014,06,13,01,14,14.80
2014,06,13,01,15,14.80
2014,06,13,01,16,14.80
2014,06,13,01,17,14.70
2014,06,13,01,18,14.70
2014,06,13,01,19,14.70
2014,06,13,01,20,14.70
2014,06,13,01,21,14.70
2014,06,13,01,22,14.70
2014,06,13,01,23,14.70
2014,06,13,01,24,14.70
2014,06,13,01,25,14.70
2014,06,13,01,26,14.70
2014,06,13,01,27,14.70
2014,06,13,01,28,14.60
2014,06,13,01,29,14.60
2014,06,13,01,30,14.60
2014,06,13,01,31,14.60
2014,06,13,01,32,14.60
2014,06,13,01,33,14.60
2014,06,13,01,34,14.60
2014,06,13,01,35,14.60
2014,06,13,01,36,14.60
2014,06,13,01,37,14.50
2014,06,13,01,38,14.50
2014,06,13,01,39,14.50
2014,06,13,01,40,14.40
2014,06,13,01,41,14.40
2014,06,13,01,42,14.40
2014,06,13,01,43,14.40
2014,06,13,01,44,14.40
2014,06,13,01,45,14.40
2014,06,13,01,46,14.40
2014,06,13,01,47,14.40
2014,06,13,01,48,14.40
2014,06,13,01,49,14.40
2014,06,13,01,50,14.30
2014,06,13,01,51,14.30
2014,06,13,01,52,14.30
2014,06,13,01,53,14.30
2014,06,13,01,54,14.30
2014,06,13,01,55,14.30
2014,06,13,01,56,14.20
2014,06,13,01,57,14.20
2014,06,13,01,58,14.20
2014,06,13,01,59,14.20
2014,06,13,02,00,14.20
2014,06,13,02,01,14.20
2014,06,13,02,02,14.20
2014,06,13,02,03,14.20
2014,06,13,02,04,14.20
2014,06,13,02,05,14.20
2014,06,13,02,06,14.10
2014,06,13,02,07,14.10
2014,06,13,02,08,14.10
2014,06,13,02,09,14.10
2014,06,13,02,10,14.10
2014,06,13,02,11,14.10
2014,06,13,02,12,14.10
2014,06,13,02,13,14.10
2014,06,13,02,14,14.10
2014,06,13,02,15,14.10
2014,06,13,02,16,14.10
2014,06,13,02,17,14.10
2014,06,13,02,18,14.10
2014,06,13,02,19,14.10
2014,06,13,02,20,14.10
2014,06,13,02,21,14.10
2014,06,13,02,22,14.10
2014,06,13,02,23,14.10
2014,06,13,02,24,14.10
2014,06,13,02,25,14.10
2014,06,13,02,26,14.10
2014,06,13,02,27,14.10
2014,06,13,02,28,14.10
2014,06,13,02,29,14.10
2014,06,13,02,30,14.10
2014,06,13,02,31,14.10
2014,06,13,02,32,14.10
2014,06,13,02,33,14.10
2014,06,13,02,34,14.10
2014,06,13,02,35,14.10
2014,06,13,02,36,14.10
2014,06,13,02,37,14.10
2014,06,13,02,38,14.00
2014,06,13,02,39,14.10
2014,06,13,02,40,14.10
2014,06,13,02,41,14.10
2014,06,13,02,42,14.10
2014,06,13,02,43,14.10
2014,06,13,02,44,14.10
2014,06,13,02,45,14.10
2014,06,13,02,46,14.10
2014,06,13,02,47,14.10
2014,06,13,02,48,14.10
2014,06,13,02,49,14.10
2014,06,13,02,50,14.10
2014,06,13,02,51,14.10
2014,06,13,02,52,14.10
2014,06,13,02,53,14.10
2014,06,13,02,54,14.10
2014,06,13,02,55,14.10
2014,06,13,02,56,14.10
2014,06,13,02,57,14.10
2014,06,13,02,58,14.10
2014,06,13,02,59,14.10
2014,06,13,03,00,14.10
2014,06,13,03,01,14.10
2014,06,13,03,02,14.10
2014,06,13,03,03,14.10
2014,06,13,03,04,14.10
2014,06,13,03,05,14.10
2014,06,13,03,06,14.10
2014,06,13,03,07,14.10
2014,06,13,03,08,14.10
2014,06,13,03,09,14.10
2014,06,13,03,10,14.10
2014,06,13,03,11,14.10
2014,06,13,03,12,14.10
2014,06,13,03,13,14.10
2014,06,13,03,14,14.10
2014,06,13,03,15,14.10
2014,06,13,03,16,14.10
2014,06,13,03,17,14.10
2014,06,13,03,18,14.10
2014,06,13,03,19,14.10
2014,06,13,03,20,14.10
2014,06,13,03,21,14.10
2014,06,13,03,22,14.20
2014,06,13,03,23,14.20
2014,06,13,03,24,14.20
2014,06,13,03,25,14.20
2014,06,13,03,26,14.30
2014,06,13,03,27,14.30
2014,06,13,03,28,14.30
2014,06,13,03,29,14.30
2014,06,13,03,30,14.30
2014,06,13,03,31,14.30
2014,06,13,03,32,14.30
2014,06,13,03,33,14.30
2014,06,13,03,34,14.30
2014,06,13,03,35,14.30
2014,06,13,03,36,14.30
2014,06,13,03,37,14.30
2014,06,13,03,38,14.30
2014,06,13,03,39,14.30
2014,06,13,03,40,14.30
2014,06,13,03,41,14.30
2014,06,13,03,42,14.30
2014,06,13,03,43,14.20
2014,06,13,03,44,14.20
2014,06,13,03,45,14.20
2014,06,13,03,46,14.20
2014,06,13,03,47,14.20
2014,06,13,03,48,14.20
2014,06,13,03,49,14.20
2014,06,13,03,50,14.20
2014,06,13,03,51,14.20
2014,06,13,03,52,14.20
2014,06,13,03,53,14.20
2014,06,13,03,54,14.20
2014,06,13,03,55,14.10
2014,06,13,03,56,14.10
2014,06,13,03,57,14.10
2014,06,13,03,58,14.10
2014,06,13,03,59,14.10
2014,06,13,04,00,14.10
2014,06,13,04,01,14.10
2014,06,13,04,02,14.10
2014,06,13,04,03,14.10
2014,06,13,04,04,14.00
2014,06,13,04,05,14.00
2014,06,13,04,06,14.00
2014,06,13,04,07,14.00
2014,06,13,04,08,14.00
2014,06,13,04,09,13.90
2014,06,13,04,10,13.90
2014,06,13,04,11,13.90
2014,06,13,04,12,13.90
2014,06,13,04,13,13.90
2014,06,13,04,14,13.90
2014,06,13,04,15,13.90
2014,06,13,04,16,13.90
2014,06,13,04,17,13.90
2014,06,13,04,18,13.90
2014,06,13,04,19,13.90
2014,06,13,04,20,13.80
2014,06,13,04,21,13.80
2014,06,13,04,22,13.80
2014,06,13,04,23,13.80
2014,06,13,04,24,13.80
2014,06,13,04,25,13.80
2014,06,13,04,26,13.80
2014,06,13,04,27,13.80
2014,06,13,04,28,13.80
2014,06,13,04,29,13.80
2014,06,13,04,30,13.80
2014,06,13,04,31,13.80
2014,06,13,04,32,13.80
2014,06,13,04,33,13.80
2014,06,13,04,34,13.80
2014,06,13,04,35,13.80
2014,06,13,04,36,13.80
2014,06,13,04,37,13.80
2014,06,13,04,38,13.80
2014,06,13,04,39,13.70
2014,06,13,04,40,13.70
2014,06,13,04,41,13.70
2014,06,13,04,42,13.70
2014,06,13,04,43,13.60
2014,06,13,04,44,13.60
2014,06,13,04,45,13.60
2014,06,13,04,46,13.50
2014,06,13,04,47,13.50
2014,06,13,04,48,13.50
2014,06,13,04,49,13.40
2014,06,13,04,50,13.40
2014,06,13,04,51,13.40
2014,06,13,04,52,13.30
2014,06,13,04,53,13.30
2014,06,13,04,54,13.30
2014,06,13,04,55,13.20
2014,06,13,04,56,13.20
2014,06,13,04,57,13.20
2014,06,13,04,58,13.20
2014,06,13,04,59,13.20
2014,06,13,05,00,13.20
2014,06,13,05,01,13.10
2014,06,13,05,02,13.10
2014,06,13,05,03,13.10
2014,06,13,05,04,13.10
2014,06,13,05,05,13.10
2014,06,13,05,06,13.10
2014,06,13,05,07,13.10
2014,06,13,05,08,13.10
2014,06,13,05,09,13.10
2014,06,13,05,10,13.10
2014,06,13,05,11,13.20
2014,06,13,05,12,13.20
2014,06,13,05,13,13.20
2014,06,13,05,14,13.20
2014,06,13,05,15,13.20
2014,06,13,05,16,13.20
2014,06,13,05,17,13.20
2014,06,13,05,18,13.20
2014,06,13,05,19,13.20
2014,06,13,05,20,13.20
2014,06,13,05,21,13.20
2014,06,13,05,22,13.20
2014,06,13,05,23,13.20
2014,06,13,05,24,13.20
2014,06,13,05,25,13.20
2014,06,13,05,26,13.10
2014,06,13,05,27,13.10
2014,06,13,05,28,13.20
2014,06,13,05,29,13.20
2014,06,13,05,30,13.20
2014,06,13,05,31,13.30
2014,06,13,05,32,13.30
2014,06,13,05,33,13.40
2014,06,13,05,34,13.40
2014,06,13,05,35,13.40
2014,06,13,05,36,13.50
2014,06,13,05,37,13.50
2014,06,13,05,38,13.50
2014,06,13,05,39,13.60
2014,06,13,05,40,13.60
2014,06,13,05,41,13.60
2014,06,13,05,42,13.60
2014,06,13,05,43,13.60
2014,06,13,05,44,13.60
2014,06,13,05,45,13.60
2014,06,13,05,46,13.60
2014,06,13,05,47,13.60
2014,06,13,05,48,13.60
2014,06,13,05,49,13.60
2014,06,13,05,50,13.60
2014,06,13,05,51,13.60
2014,06,13,05,52,13.60
2014,06,13,05,53,13.60
2014,06,13,05,54,13.60
2014,06,13,05,55,13.70
2014,06,13,05,56,13.70
2014,06,13,05,57,13.70
2014,06,13,05,58,13.70
2014,06,13,05,59,13.70
2014,06,13,06,00,13.70
2014,06,13,06,01,13.70
2014,06,13,06,02,13.70
2014,06,13,06,03,13.70
2014,06,13,06,04,13.70
2014,06,13,06,05,13.70
2014,06,13,06,06,13.70
2014,06,13,06,07,13.70
2014,06,13,06,08,13.70
2014,06,13,06,09,13.70
2014,06,13,06,10,13.70
2014,06,13,06,11,13.70
2014,06,13,06,12,13.70
2014,06,13,06,13,13.70
2014,06,13,06,14,13.70
2014,06,13,06,15,13.70
2014,06,13,06,16,13.80
2014,06,13,06,17,13.80
2014,06,13,06,18,13.80
2014,06,13,06,19,13.80
2014,06,13,06,20,13.80
2014,06,13,06,21,13.80
2014,06,13,06,22,13.80
2014,06,13,06,23,13.80
2014,06,13,06,24,13.80
2014,06,13,06,25,13.80
2014,06,13,06,26,13.80
2014,06,13,06,27,13.80
2014,06,13,06,28,13.80
2014,06,13,06,29,13.80
2014,06,13,06,30,13.80
2014,06,13,06,31,13.80
2014,06,13,06,32,13.80
2014,06,13,06,33,13.80
2014,06,13,06,34,13.80
2014,06,13,06,35,13.90
2014,06,13,06,36,13.90
2014,06,13,06,37,13.90
2014,06,13,06,38,13.90
2014,06,13,06,39,13.90
2014,06,13,06,40,14.00
2014,06,13,06,41,14.00
2014,06,13,06,42,14.00
2014,06,13,06,43,14.00
2014,06,13,06,44,14.00
2014,06,13,06,45,14.10
2014,06,13,06,46,14.10
2014,06,13,06,47,14.10
2014,06,13,06,48,14.10
2014,06,13,06,49,14.10
2014,06,13,06,50,14.20
2014,06,13,06,51,14.20
2014,06,13,06,52,14.20
2014,06,13,06,53,14.30
2014,06,13,06,54,14.30
2014,06,13,06,55,14.30
2014,06,13,06,56,14.30
2014,06,13,06,57,14.30
2014,06,13,06,58,14.30
2014,06,13,06,59,14.30
2014,06,13,07,00,14.30
2014,06,13,07,01,14.30
2014,06,13,07,02,14.30
2014,06,13,07,03,14.40
2014,06,13,07,04,14.40
2014,06,13,07,05,14.40
2014,06,13,07,06,14.50
2014,06,13,07,07,14.50
2014,06,13,07,08,14.50
2014,06,13,07,09,14.60
2014,06,13,07,10,14.60
2014,06,13,07,11,14.60
2014,06,13,07,12,14.70
2014,06,13,07,13,14.70
2014,06,13,07,14,14.70
2014,06,13,07,15,14.70
2014,06,13,07,16,14.70
2014,06,13,07,17,14.80
2014,06,13,07,18,14.80
2014,06,13,07,19,14.80
2014,06,13,07,20,14.80
2014,06,13,07,21,14.80
2014,06,13,07,22,14.80
2014,06,13,07,23,14.80
2014,06,13,07,24,14.80
2014,06,13,07,25,14.80
2014,06,13,07,26,14.80
2014,06,13,07,27,14.80
2014,06,13,07,28,14.90
2014,06,13,07,29,14.90
2014,06,13,07,30,14.90
2014,06,13,07,31,14.90
2014,06,13,07,32,15.00
2014,06,13,07,33,15.00
2014,06,13,07,34,15.00
2014,06,13,07,35,15.00
2014,06,13,07,36,15.10
2014,06,13,07,37,15.10
2014,06,13,07,38,15.10
2014,06,13,07,39,15.10
2014,06,13,07,40,15.10
2014,06,13,07,41,15.10
2014,06,13,07,42,15.20
2014,06,13,07,43,15.20
2014,06,13,07,44,15.20
2014,06,13,07,45,15.10
2014,06,13,07,46,15.10
2014,06,13,07,47,15.10
2014,06,13,07,48,15.10
2014,06,13,07,49,15.10
2014,06,13,07,50,15.10
2014,06,13,07,51,15.20
2014,06,13,07,52,15.20
2014,06,13,07,53,15.20
2014,06,13,07,54,15.20
2014,06,13,07,55,15.20
2014,06,13,07,56,15.20
2014,06,13,07,57,15.30
2014,06,13,07,58,15.30
2014,06,13,07,59,15.30
2014,06,13,08,00,15.30
2014,06,13,08,01,15.30
2014,06,13,08,02,15.30
2014,06,13,08,03,15.30
2014,06,13,08,04,15.20
2014,06,13,08,05,15.20
2014,06,13,08,06,15.10
2014,06,13,08,07,15.10
2014,06,13,08,08,15.10
2014,06,13,08,09,15.10
2014,06,13,08,10,15.10
2014,06,13,08,11,15.20
2014,06,13,08,12,15.20
2014,06,13,08,13,15.30
2014,06,13,08,14,15.30
2014,06,13,08,15,15.30
2014,06,13,08,16,15.40
2014,06,13,08,17,15.40
2014,06,13,08,18,15.40
2014,06,13,08,19,15.40
2014,06,13,08,20,15.50
2014,06,13,08,21,15.50
2014,06,13,08,22,15.50
2014,06,13,08,23,15.60
2014,06,13,08,24,15.50
2014,06,13,08,25,15.50
2014,06,13,08,26,15.40
2014,06,13,08,27,15.40
2014,06,13,08,28,15.40
2014,06,13,08,29,15.40
2014,06,13,08,30,15.50
2014,06,13,08,31,15.50
2014,06,13,08,32,15.60
2014,06,13,08,33,15.60
2014,06,13,08,34,15.60
2014,06,13,08,35,15.60
2014,06,13,08,36,15.70
2014,06,13,08,37,15.70
2014,06,13,08,38,15.70
2014,06,13,08,39,15.70
2014,06,13,08,40,15.70
2014,06,13,08,41,15.70
2014,06,13,08,42,15.70
2014,06,13,08,43,15.70
2014,06,13,08,44,15.70
2014,06,13,08,45,15.70
2014,06,13,08,46,15.70
2014,06,13,08,47,15.70
2014,06,13,08,48,15.70
2014,06,13,08,49,15.70
2014,06,13,08,50,15.70
2014,06,13,08,51,15.70
2014,06,13,08,52,15.70
2014,06,13,08,53,15.80
2014,06,13,08,54,15.80
2014,06,13,08,55,15.80
2014,06,13,08,56,15.80
2014,06,13,08,57,15.80
2014,06,13,08,58,15.90
2014,06,13,08,59,15.90
2014,06,13,09,00,15.90
2014,06,13,09,01,15.90
2014,06,13,09,02,15.90
2014,06,13,09,03,15.90
2014,06,13,09,04,15.90
2014,06,13,09,05,15.90
2014,06,13,09,06,15.90
2014,06,13,09,07,15.90
2014,06,13,09,08,15.80
2014,06,13,09,09,15.80
2014,06,13,09,10,15.80
2014,06,13,09,11,15.70
2014,06,13,09,12,15.70
2014,06,13,09,13,15.70
2014,06,13,09,14,15.70
2014,06,13,09,15,15.70
2014,06,13,09,16,15.70
2014,06,13,09,17,15.70
2014,06,13,09,18,15.60
2014,06,13,09,19,15.60
2014,06,13,09,20,15.60
2014,06,13,09,21,15.60
2014,06,13,09,22,15.50
2014,06,13,09,23,15.50
2014,06,13,09,24,15.40
2014,06,13,09,25,15.30
2014,06,13,09,26,15.30
2014,06,13,09,27,15.30
2014,06,13,09,28,15.30
2014,06,13,09,29,15.30
2014,06,13,09,30,15.30
2014,06,13,09,31,15.30
2014,06,13,09,32,15.30
2014,06,13,09,33,15.30
2014,06,13,09,34,15.30
2014,06,13,09,35,15.30
2014,06,13,09,36,15.40
2014,06,13,09,37,15.40
2014,06,13,09,38,15.50
2014,06,13,09,39,15.50
2014,06,13,09,40,15.50
2014,06,13,09,41,15.50
2014,06,13,09,42,15.40
2014,06,13,09,43,15.40
2014,06,13,09,44,15.50
2014,06,13,09,45,15.50
2014,06,13,09,46,15.60
2014,06,13,09,47,15.60
2014,06,13,09,48,15.70
2014,06,13,09,49,15.70
2014,06,13,09,50,15.70
2014,06,13,09,51,15.70
2014,06,13,09,52,15.80
2014,06,13,09,53,15.90
2014,06,13,09,54,15.90
2014,06,13,09,55,16.00
2014,06,13,09,56,16.00
2014,06,13,09,57,16.00
2014,06,13,09,58,16.00
2014,06,13,09,59,16.10
2014,06,13,10,00,16.10
2014,06,13,10,01,16.10
2014,06,13,10,02,16.10
2014,06,13,10,03,16.10
2014,06,13,10,04,16.20
2014,06,13,10,05,16.20
2014,06,13,10,06,16.30
2014,06,13,10,07,16.30
2014,06,13,10,08,16.30
2014,06,13,10,09,16.20
2014,06,13,10,10,16.20
2014,06,13,10,11,16.20
2014,06,13,10,12,16.20
2014,06,13,10,13,16.20
2014,06,13,10,14,16.20
2014,06,13,10,15,16.20
2014,06,13,10,16,16.20
2014,06,13,10,17,16.20
2014,06,13,10,18,16.20
2014,06,13,10,19,16.10
2014,06,13,10,20,16.10
2014,06,13,10,21,16.10
2014,06,13,10,22,16.10
2014,06,13,10,23,16.10
2014,06,13,10,24,16.10
2014,06,13,10,25,16.10
2014,06,13,10,26,16.20
2014,06,13,10,27,16.20
2014,06,13,10,28,16.30
2014,06,13,10,29,16.30
2014,06,13,10,30,16.30
2014,06,13,10,31,16.20
2014,06,13,10,32,16.20
2014,06,13,10,33,16.10
2014,06,13,10,34,16.10
2014,06,13,10,35,16.10
2014,06,13,10,36,16.10
2014,06,13,10,37,16.10
2014,06,13,10,38,16.20
2014,06,13,10,39,16.30
2014,06,13,10,40,16.30
2014,06,13,10,41,16.30
2014,06,13,10,42,16.20
2014,06,13,10,43,16.10
2014,06,13,10,44,16.10
2014,06,13,10,45,16.20
2014,06,13,10,46,16.20
2014,06,13,10,47,16.30
2014,06,13,10,48,16.30
2014,06,13,10,49,16.30
2014,06,13,10,50,16.20
2014,06,13,10,51,16.20
2014,06,13,10,52,16.20
2014,06,13,10,53,16.30
2014,06,13,10,54,16.30
2014,06,13,10,55,16.20
2014,06,13,10,56,16.20
2014,06,13,10,57,16.20
2014,06,13,10,58,16.20
2014,06,13,10,59,16.30
2014,06,13,11,00,16.30
2014,06,13,11,01,16.50
2014,06,13,11,02,16.50
2014,06,13,11,03,16.60
2014,06,13,11,04,16.70
2014,06,13,11,05,16.80
2014,06,13,11,06,16.90
2014,06,13,11,07,16.80
2014,06,13,11,08,16.80
2014,06,13,11,09,16.80
2014,06,13,11,10,16.80
2014,06,13,11,11,16.70
2014,06,13,11,12,16.70
2014,06,13,11,13,16.60
2014,06,13,11,14,16.60
2014,06,13,11,15,16.60
2014,06,13,11,16,16.60
2014,06,13,11,17,16.70
2014,06,13,11,18,16.80
2014,06,13,11,19,16.80
2014,06,13,11,20,16.90
2014,06,13,11,21,16.90
2014,06,13,11,22,17.00
2014,06,13,11,23,17.00
2014,06,13,11,24,17.00
2014,06,13,11,25,16.90
2014,06,13,11,26,16.80
2014,06,13,11,27,16.80
2014,06,13,11,28,16.80
2014,06,13,11,29,16.90
2014,06,13,11,30,17.00
2014,06,13,11,31,17.10
2014,06,13,11,32,17.10
2014,06,13,11,33,17.10
2014,06,13,11,34,17.00
2014,06,13,11,35,17.00
2014,06,13,11,36,17.10
2014,06,13,11,37,17.10
2014,06,13,11,38,17.10
2014,06,13,11,39,17.00
2014,06,13,11,40,17.00
2014,06,13,11,41,16.90
2014,06,13,11,42,16.80
2014,06,13,11,43,16.90
2014,06,13,11,44,16.90
2014,06,13,11,45,16.90
2014,06,13,11,46,16.80
2014,06,13,11,47,16.80
2014,06,13,11,48,16.90
2014,06,13,11,49,17.00
2014,06,13,11,50,17.10
2014,06,13,11,51,17.10
2014,06,13,11,52,17.10
2014,06,13,11,53,17.10
2014,06,13,11,54,17.30
2014,06,13,11,55,17.30
2014,06,13,11,56,17.40
2014,06,13,11,57,17.40
2014,06,13,11,58,17.50
2014,06,13,11,59,17.60
2014,06,13,12,00,17.70
2014,06,13,12,01,17.80
2014,06,13,12,02,17.80
2014,06,13,12,03,17.90
2014,06,13,12,04,17.90
2014,06,13,12,05,17.70
2014,06,13,12,06,17.60
2014,06,13,12,07,17.50
2014,06,13,12,08,17.40
2014,06,13,12,09,17.30
2014,06,13,12,10,17.30
2014,06,13,12,11,17.30
2014,06,13,12,12,17.30
2014,06,13,12,13,17.30
2014,06,13,12,14,17.30
2014,06,13,12,15,17.40
2014,06,13,12,16,17.50
2014,06,13,12,17,17.60
2014,06,13,12,18,17.70
2014,06,13,12,19,17.80
2014,06,13,12,20,17.80
2014,06,13,12,21,17.80
2014,06,13,12,22,17.80
2014,06,13,12,23,17.80
2014,06,13,12,24,17.70
2014,06,13,12,25,17.70
2014,06,13,12,26,17.70
2014,06,13,12,27,17.60
2014,06,13,12,28,17.50
2014,06,13,12,29,17.50
2014,06,13,12,30,17.50
2014,06,13,12,31,17.50
2014,06,13,12,32,17.60
2014,06,13,12,33,17.60
2014,06,13,12,34,17.60
2014,06,13,12,35,17.70
2014,06,13,12,36,17.70
2014,06,13,12,37,17.80
2014,06,13,12,38,17.80
2014,06,13,12,39,17.80
2014,06,13,12,40,17.80
2014,06,13,12,41,17.90
2014,06,13,12,42,17.90
2014,06,13,12,43,18.00
2014,06,13,12,44,18.10
2014,06,13,12,45,18.10
2014,06,13,12,46,18.00
2014,06,13,12,47,17.90
2014,06,13,12,48,17.90
2014,06,13,12,49,17.90
2014,06,13,12,50,17.90
2014,06,13,12,51,17.80
2014,06,13,12,52,17.70
2014,06,13,12,53,17.70
2014,06,13,12,54,17.70
2014,06,13,12,55,17.70
2014,06,13,12,56,17.70
2014,06,13,12,57,17.60
2014,06,13,12,58,17.60
2014,06,13,12,59,17.60
2014,06,13,13,00,17.60
2014,06,13,13,01,17.50
2014,06,13,13,02,17.40
2014,06,13,13,03,17.40
2014,06,13,13,04,17.40
2014,06,13,13,05,17.40
2014,06,13,13,06,17.50
2014,06,13,13,07,17.70
2014,06,13,13,08,17.80
2014,06,13,13,09,17.80
2014,06,13,13,10,17.90
2014,06,13,13,11,18.00
2014,06,13,13,12,18.00
2014,06,13,13,13,17.90
2014,06,13,13,14,17.90
2014,06,13,13,15,17.90
2014,06,13,13,16,17.80
2014,06,13,13,17,17.80
2014,06,13,13,18,17.80
2014,06,13,13,19,17.80
2014,06,13,13,20,17.90
2014,06,13,13,21,18.00
2014,06,13,13,22,18.10
2014,06,13,13,23,18.20
2014,06,13,13,24,18.20
2014,06,13,13,25,18.20
2014,06,13,13,26,18.20
2014,06,13,13,27,18.20
2014,06,13,13,28,18.40
2014,06,13,13,29,18.50
2014,06,13,13,30,18.50
2014,06,13,13,31,18.50
2014,06,13,13,32,18.40
2014,06,13,13,33,18.40
2014,06,13,13,34,18.40
2014,06,13,13,35,18.30
2014,06,13,13,36,18.30
2014,06,13,13,37,18.30
2014,06,13,13,38,18.40
2014,06,13,13,39,18.40
2014,06,13,13,40,18.40
2014,06,13,13,41,18.30
2014,06,13,13,42,18.20
2014,06,13,13,43,18.10
2014,06,13,13,44,18.10
2014,06,13,13,45,18.20
2014,06,13,13,46,18.20
2014,06,13,13,47,18.20
2014,06,13,13,48,18.40
2014,06,13,13,49,18.40
2014,06,13,13,50,18.40
2014,06,13,13,51,18.30
2014,06,13,13,52,18.30
2014,06,13,13,53,18.20
2014,06,13,13,54,18.20
2014,06,13,13,55,18.20
2014,06,13,13,56,18.20
2014,06,13,13,57,18.20
2014,06,13,13,58,18.20
2014,06,13,13,59,18.20
2014,06,13,14,00,18.10
2014,06,13,14,01,18.10
2014,06,13,14,02,18.20
2014,06,13,14,03,18.30
2014,06,13,14,04,18.30
2014,06,13,14,05,18.30
2014,06,13,14,06,18.40
2014,06,13,14,07,18.50
2014,06,13,14,08,18.50
2014,06,13,14,09,18.60
2014,06,13,14,10,18.70
2014,06,13,14,11,18.70
2014,06,13,14,12,18.90
2014,06,13,14,13,18.90
2014,06,13,14,14,18.90
2014,06,13,14,15,19.00
2014,06,13,14,16,19.10
2014,06,13,14,17,19.20
2014,06,13,14,18,19.30
2014,06,13,14,19,19.40
2014,06,13,14,20,19.40
2014,06,13,14,21,19.40
2014,06,13,14,22,19.40
2014,06,13,14,23,19.30
2014,06,13,14,24,19.30
2014,06,13,14,25,19.30
2014,06,13,14,26,19.30
2014,06,13,14,27,19.30
2014,06,13,14,28,19.20
2014,06,13,14,29,19.20
2014,06,13,14,30,19.20
2014,06,13,14,31,19.10
2014,06,13,14,32,19.10
2014,06,13,14,33,19.10
2014,06,13,14,34,19.10
2014,06,13,14,35,19.20
2014,06,13,14,36,19.10
2014,06,13,14,37,19.00
2014,06,13,14,38,18.90
2014,06,13,14,39,18.80
2014,06,13,14,40,18.70
2014,06,13,14,41,18.70
2014,06,13,14,42,18.70
2014,06,13,14,43,18.80
2014,06,13,14,44,18.80
2014,06,13,14,45,18.90
2014,06,13,14,46,19.10
2014,06,13,14,47,19.20
2014,06,13,14,48,19.40
2014,06,13,14,49,19.60
2014,06,13,14,50,19.70
2014,06,13,14,51,19.70
2014,06,13,14,52,19.70
2014,06,13,14,53,19.60
2014,06,13,14,54,19.50
2014,06,13,14,55,19.40
2014,06,13,14,56,19.30
2014,06,13,14,57,19.20
2014,06,13,14,58,19.20
2014,06,13,14,59,19.20
2014,06,13,15,00,19.20
2014,06,13,15,01,19.30
2014,06,13,15,02,19.20
2014,06,13,15,03,19.20
2014,06,13,15,04,19.30
2014,06,13,15,05,19.40
2014,06,13,15,06,19.60
2014,06,13,15,07,19.70
2014,06,13,15,08,19.80
2014,06,13,15,09,19.90
2014,06,13,15,10,20.00
2014,06,13,15,11,20.10
2014,06,13,15,12,20.00
2014,06,13,15,13,19.90
2014,06,13,15,14,19.80
2014,06,13,15,15,19.80
2014,06,13,15,16,19.70
2014,06,13,15,17,19.60
2014,06,13,15,18,19.60
2014,06,13,15,19,19.60
2014,06,13,15,20,19.60
2014,06,13,15,21,19.60
2014,06,13,15,22,19.50
2014,06,13,15,23,19.60
2014,06,13,15,24,19.60
2014,06,13,15,25,19.60
2014,06,13,15,26,19.50
2014,06,13,15,27,19.30
2014,06,13,15,28,19.30
2014,06,13,15,29,19.30
2014,06,13,15,30,19.30
2014,06,13,15,31,19.30
2014,06,13,15,32,19.20
2014,06,13,15,33,19.30
2014,06,13,15,34,19.40
2014,06,13,15,35,19.50
2014,06,13,15,36,19.60
2014,06,13,15,37,19.80
2014,06,13,15,38,19.90
2014,06,13,15,39,20.00
2014,06,13,15,40,19.90
2014,06,13,15,41,19.90
2014,06,13,15,42,19.90
2014,06,13,15,43,19.90
2014,06,13,15,44,19.80
2014,06,13,15,45,19.70
2014,06,13,15,46,19.70
2014,06,13,15,47,19.70
2014,06,13,15,48,19.70
2014,06,13,15,49,19.80
2014,06,13,15,50,19.80
2014,06,13,15,51,19.80
2014,06,13,15,52,19.90
2014,06,13,15,53,19.90
2014,06,13,15,54,20.00
2014,06,13,15,55,20.00
2014,06,13,15,56,19.90
2014,06,13,15,57,19.80
2014,06,13,15,58,19.70
2014,06,13,15,59,19.70
2014,06,13,16,00,19.70
2014,06,13,16,01,19.80
2014,06,13,16,02,19.80
2014,06,13,16,03,19.80
2014,06,13,16,04,19.80
2014,06,13,16,05,19.80
2014,06,13,16,06,19.80
2014,06,13,16,07,19.80
2014,06,13,16,08,19.90
2014,06,13,16,09,20.00
2014,06,13,16,10,20.10
2014,06,13,16,11,20.20
2014,06,13,16,12,20.20
2014,06,13,16,13,20.20
2014,06,13,16,14,20.20
2014,06,13,16,15,20.20
2014,06,13,16,16,20.10
2014,06,13,16,17,20.10
2014,06,13,16,18,20.20
2014,06,13,16,19,20.10
2014,06,13,16,20,20.20
2014,06,13,16,21,20.20
2014,06,13,16,22,20.30
2014,06,13,16,23,20.30
2014,06,13,16,24,20.30
2014,06,13,16,25,20.40
2014,06,13,16,26,20.30
2014,06,13,16,27,20.30
2014,06,13,16,28,20.40
2014,06,13,16,29,20.40
2014,06,13,16,30,20.30
2014,06,13,16,31,20.30
2014,06,13,16,32,20.20
2014,06,13,16,33,20.30
2014,06,13,16,34,20.30
2014,06,13,16,35,20.30
2014,06,13,16,36,20.30
2014,06,13,16,37,20.30
2014,06,13,16,38,20.30
2014,06,13,16,39,20.20
2014,06,13,16,40,20.20
2014,06,13,16,41,20.20
2014,06,13,16,42,20.30
2014,06,13,16,43,20.40
2014,06,13,16,44,20.40
2014,06,13,16,45,20.40
2014,06,13,16,46,20.40
2014,06,13,16,47,20.50
2014,06,13,16,48,20.60
2014,06,13,16,49,20.50
2014,06,13,16,50,20.50
2014,06,13,16,51,20.40
2014,06,13,16,52,20.30
2014,06,13,16,53,20.30
2014,06,13,16,54,20.30
2014,06,13,16,55,20.40
2014,06,13,16,56,20.40
2014,06,13,16,57,20.40
2014,06,13,16,58,20.40
2014,06,13,16,59,20.50
2014,06,13,17,00,20.50
2014,06,13,17,01,20.60
2014,06,13,17,02,20.70
2014,06,13,17,03,20.70
2014,06,13,17,04,20.70
2014,06,13,17,05,20.70
2014,06,13,17,06,20.80
2014,06,13,17,07,20.90
2014,06,13,17,08,20.90
2014,06,13,17,09,20.90
2014,06,13,17,10,20.90
2014,06,13,17,11,20.90
2014,06,13,17,12,20.90
2014,06,13,17,13,20.80
2014,06,13,17,14,20.70
2014,06,13,17,15,20.50
2014,06,13,17,16,20.40
2014,06,13,17,17,20.40
2014,06,13,17,18,20.40
2014,06,13,17,19,20.30